Overview Statistics Trail Chart Weather Telemetry Raw packets
 

This is the latest recevied weather packets stored in our database for station/object W5ALL-WX. If no packets are shown the sender has not sent any weather packets the latest 10 day(s).

<< 85 86 87 88 89 90 91 >>
Time Temp. Humidity Pressure Rain* Wind** Luminosity Snow
1777364701 18.33° C 12% 1014.2 hPa 0 mm - - -
1777364401 17.78° C 12% 1014.2 hPa 0 mm - - -
1777364101 18.33° C 12% 1014.2 hPa 0 mm - - -
1777363801 18.33° C 12% 1014.3 hPa 0 mm - - -
1777363501 18.33° C 12% 1014.3 hPa 0 mm - - -
1777363201 18.33° C 12% 1014.3 hPa 0 mm - - -
1777362901 18.33° C 12% 1014.3 hPa 0 mm - - -
1777362601 18.89° C 11% 1014.3 hPa 0 mm - - -
1777362301 18.89° C 11% 1014.3 hPa 0 mm - - -
1777362001 19.44° C 11% 1014.3 hPa 0 mm - - -
1777361701 19.44° C 11% 1014.3 hPa 0 mm - - -
1777361401 19.44° C 10% 1014.5 hPa 0 mm - - -
1777361101 19.44° C 10% 1014.5 hPa 0 mm - - -
1777360801 19.44° C 10% 1014.3 hPa 0 mm - - -
1777360501 19.44° C 10% 1014.3 hPa 0 mm - - -
1777360201 20° C 10% 1014.3 hPa 0 mm - - -
1777359901 20° C 9% 1014.3 hPa 0 mm - - -
1777359601 20° C 10% 1014.2 hPa 0 mm - - -
1777359301 19.44° C 10% 1014.2 hPa 0 mm - - -
1777359001 20° C 10% 1014.2 hPa 0 mm - - -
1777358701 20.56° C 9% 1014.2 hPa 0 mm - - -
1777358401 20° C 9% 1014.2 hPa 0 mm - - -
1777358101 20.56° C 9% 1014.1 hPa 0 mm - - -
1777357801 20.56° C 9% 1014.2 hPa 0 mm - - -
1777357501 20.56° C 9% 1014.1 hPa 0 mm - - -

* Rain latest hour (hover to see other rain measurements)
** Current wind speed in m/s (hover to see current wind gust speed)